Regional Weather Roundup
Issued by NWS Newport/Morehead, NC

Current Version | Previous Version | Graphics & Text | Print | Product List | Glossary Off
Versions: 1 2 3 4 5 6 7 8 9 10 11 12 13 14 15 16 17 18 19 20 21 22 23 24 25 26 27 28 29 30 31 32 33 34 35 36 37 38 39 40 41 42 43 44 45 46 47 48 49 50

000
ASUS42 KMHX 201325
RWRMHX
WEATHER ROUNDUP FOR EASTERN NORTH CAROLINA
NATIONAL WEATHER SERVICE NEWPORT/MOREHEAD CITY NC
800 AM EST MON NOV 20 2017

NOTE: "FAIR" INDICATES FEW OR NO CLOUDS BELOW 12,000 FEET
WITH NO SIGNIFICANT WEATHER AND/OR OBSTRUCTIONS TO VISIBILITY

NCZ015>017-031-032-045>047-102-103-201400-
NORTH COAST

CITY           SKY/WX    TMP DP  RH WIND       PRES   REMARKS
EDENTON        SUNNY     41  32  70 CALM      30.24R
ELIZABETH CITY MOSUNNY   38  31  76 W9        30.23R
KITTY HAWK     SUNNY     43  30  59 NW5       30.20R
MANTEO         SUNNY     45  32  59 N12       30.23R

$$

NCZ045>047-081-094-103-104-201400-
CENTRAL COAST

CITY           SKY/WX    TMP DP  RH WIND       PRES   REMARKS
FRISCO         SUNNY     48  35  60 NW8G18    30.21R

$$

NCZ095-097-098-100-101-201400-
SOUTHERN COAST

CITY           SKY/WX    TMP DP  RH WIND       PRES   REMARKS
BEAUFORT       SUNNY     43  33  68 N10       30.24R
CEDAR ISLAND   NOT AVBL
JACKSONVILLE   NOT AVBL
PINEY ISLAND   NOT AVBL
WILMINGTON     SUNNY     38  33  82 CALM      30.25R


$$

NCZ011>013-027>030-043-044-078>080-089-090>093-098-201400-
COASTAL PLAIN

CITY           SKY/WX    TMP DP  RH WIND       PRES   REMARKS
AHOSKIE        SUNNY     34  29  80 CALM      30.24R
CLINTON        SUNNY     35  32  88 CALM      30.27R
ELIZABETHTOWN  NOT AVBL
GOLDSBORO      SUNNY     41  26  55 NW8       30.23R
GREENVILLE     MOSUNNY   39  30  70 N5        30.25R
HAVELOCK       NOT AVBL
KENANSVILLE    SUNNY     36  32  87 CALM      30.26R
KINSTON        SUNNY     34  30  86 CALM      30.25R
NEW BERN       MOSUNNY   37  30  75 W5        30.25R
RICHLANDS      SUNNY     36  32  85 CALM      30.25R
ROCKY MOUNT    MOSUNNY   36  29  75 W6        30.25R
WASHINGTON     MOSUNNY   38  29  68 NW5       30.24R
WHITEVILLE     SUNNY     38  31  76 CALM      30.25R

$$

AMZ130-135-150-152-154-156-158-170-250-252-270-ANZ085-086-088-633-658-670-201400-
MARINE OBSERVATIONS

STATION/POSITION TIME  TEMP    WIND        PRES    WAVE   SWELL
                       AIR SEA DIR/SP/G            HT/PER HT/PER
                 (UTC) (F)     (DEG/KT/KT) (MB)    (FT/S) (FT/S)
CHESAPEAKE LIGHT NOT AVBL
64 E VA BEACH    1250   50 60  310/ 16/ 19 1021.4    6/ 7
DUCK             1300   42 60  300/ 13/ 16 1022.5
2 E DUCK         1300      61                N/A     3/ 5
OREGON INLET     1300   45 55  290/ 10/ 13 1022.9
13E OREGON INLT  1248      62                N/A     5/ 7   3/ 7
HATTERAS CG      1300   47 59  330/ 17/ 19 1022.8
DIAMOND BUOY     1300   50 67  320/ 16/ 19 1022.9
CAPE LOOKOUT     1300          340/ 17/ 20 1023.9
BEAUFORT LAB     1300   43 59  330/  7/  9 1024.0
30 SE NEW RVR IN 1308   51 69   20/ 14/ 19 1023.8
30 SE NEW RVR IN 1300      69                N/A     4/ 4
27 SE WRIGHTSVLE 1308   51 68  360/ 17/ 27 1023.4
5 SE WRIGHTSVLE  1308   48 64  350/ 14/ 17 1023.4
225 S CAPE HAT   1250   65 76  360/ 16/ 19 1019.9    7/ 7   3/ 8
41 SE CHARLESTON 1300   57 73   30/ 16/ 19 1022.9

$$




USA.gov is the U.S. government's official web portal to all federal, state and local government web resources and services.